Wind_Speed
25 25 25 25 25 25 25 25 26 26 27 27 28 28 29 30 31 32 33 33 34 34 35 35 36 36 36 36 35 35 35 35 35 35 35 35 35 35 35 35 35 34 35
27 27 26 26 26 26 27 27 28 28 29 29 30 30 31 31 32 33 33 34 34 35 36 37 37 36 37 37 38 37 36 36 36 36 36 37 36 36 36 36 36 36 36
29 28 28 28 28 28 28 29 29 30 30 31 31 32 32 33 34 34 34 34 35 35 36 37 38 38 38 38 39 39 38 37 37 37 37 38 38 38 38 38 38 38 38
30 30 30 30 30 30 30 30 30 30 31 32 33 33 34 34 34 35 35 35 36 36 37 38 38 38 38 39 39 39 39 38 38 39 39 38 38 39 39 39 39 39 39
32 32 32 32 32 32 31 31 31 31 31 31 32 33 34 35 35 35 35 36 37 38 38 38 38 38 38 38 39 39 40 39 39 40 40 39 39 40 40 39 39 40 39
33 33 33 33 33 32 32 32 33 32 32 32 33 33 33 33 34 35 36 36 36 37 37 37 38 38 38 38 38 39 40 40 41 40 40 40 40 40 40 40 39 40 40
33 33 33 33 33 33 33 33 34 34 33 33 33 33 33 33 34 34 34 34 35 35 36 37 37 37 37 38 38 39 40 40 41 42 42 41 40 39 39 39 39 39 40
33 33 33 33 34 34 35 34 35 34 34 33 33 33 33 33 32 33 33 34 34 34 35 35 35 36 37 38 38 39 40 40 40 41 41 41 40 40 39 39 39 39 39
34 34 34 35 35 35 35 35 35 35 35 34 33 33 33 33 33 32 33 33 33 34 34 34 35 36 37 38 38 39 39 40 39 39 39 40 41 41 40 39 39 39 39
34 34 35 35 36 37 37 37 37 36 36 35 34 33 33 33 33 33 33 34 34 34 34 34 35 36 37 37 38 38 38 39 39 38 38 39 40 40 41 42 41 40 40
34 34 34 35 36 37 38 38 37 37 37 36 35 34 34 34 34 34 33 34 35 34 34 35 36 37 37 38 38 39 38 38 38 38 38 39 40 41 42 42 42 41 40
35 35 36 36 37 38 39 39 38 38 38 38 37 36 36 36 36 36 35 35 35 35 35 36 36 37 37 37 37 37 38 38 38 37 37 38 39 41 42 43 42 42 40
36 37 37 38 38 39 39 40 39 39 38 38 38 37 36 37 37 37 37 37 36 36 37 38 38 38 37 37 37 37 37 38 38 38 38 38 38 40 41 42 42 41 40
37 38 39 39 40 40 40 41 40 40 39 39 38 36 37 38 39 39 39 39 39 39 39 39 40 39 39 38 37 38 38 39 39 39 39 39 39 40 40 41 41 41 40
38 38 38 39 40 39 40 39 40 40 39 39 39 38 38 39 40 40 41 41 41 40 40 40 40 40 40 40 39 39 39 39 40 40 41 41 41 40 41 42 41 41 42
40 40 41 41 40 40 40 41 42 42 42 42 42 42 42 42 42 41 41 41 42 42 41 41 41 41 41 40 40 40 40 41 41 42 42 42 42 41 41 42 41 41 42
42 43 43 42 41 41 41 42 42 42 43 43 43 44 44 43 43 42 42 42 42 43 42 41 41 41 41 41 41 41 42 41 42 43 43 43 43 43 43 42 42 42 42
43 43 44 44 44 44 44 44 44 43 43 44 44 45 45 45 45 45 45 45 44 44 44 43 42 42 42 42 42 42 42 41 41 42 43 43 43 43 43 43 42 42 42
44 44 45 45 46 46 45 45 45 45 45 45 45 46 46 46 46 47 47 47 46 46 45 44 44 44 43 43 43 43 43 42 42 43 43 43 42 42 43 43 43 43 43
46 46 46 46 46 47 47 46 46 46 46 47 47 47 47 46 46 47 47 47 46 46 46 46 45 45 44 44 44 44 44 44 44 44 43 43 43 43 43 43 43 43 43
47 48 48 48 48 48 48 48 47 47 47 47 48 48 48 48 47 47 48 47 47 47 47 46 45 45 45 45 45 44 44 44 45 44 44 44 43 43 43 42 42 43 43
49 49 49 49 49 49 49 49 48 48 47 47 48 48 49 49 49 49 49 49 49 48 47 47 46 46 46 46 45 45 45 44 44 44 45 44 44 44 43 43 43 43 43
48 49 50 50 50 50 50 49 49 49 48 48 48 48 49 49 50 50 50 49 49 49 48 48 47 47 46 46 46 46 45 45 45 44 44 43 43 43 43 44 44 44 44
49 49 50 50 50 49 50 50 50 50 50 49 49 49 49 49 49 50 50 50 49 49 49 49 49 48 47 47 47 47 46 46 45 44 44 43 44 43 43 43 44 44 44
49 49 49 50 49 49 49 50 50 50 50 50 50 50 50 50 50 50 50 50 50 50 51 50 50 49 48 48 47 47 46 46 45 44 44 43 43 43 44 44 45 45 45
49 49 49 49 49 50 50 50 50 51 51 50 51 51 51 51 50 50 50 50 50 50 50 50 50 49 48 48 47 46 46 45 45 44 43 43 43 43 43 44 45 45 45
Wind_Direction
253 256 259 260 261 264 266 268 269 269 270 271 272 273 273 273 272 272 272 273 274 273 272 273 274 273 273 273 276 276 275 276 276 276 277 277 278 278 277 277 277 278 278
254 256 259 261 263 265 267 268 269 271 271 272 272 273 274 274 274 274 274 275 275 274 273 273 273 273 272 272 274 275 275 275 276 276 276 277 277 278 278 277 276 276 277
254 256 259 261 263 266 267 268 270 272 272 273 273 274 275 275 276 275 275 276 276 276 276 274 274 273 274 273 273 273 274 274 275 276 276 276 276 277 278 277 276 275 276
254 257 259 261 264 266 267 269 271 273 273 275 276 275 276 276 277 277 277 277 277 277 277 276 275 274 275 274 273 272 273 274 275 275 275 276 276 277 277 276 275 275 275
256 258 260 261 263 265 266 268 270 272 275 276 277 277 277 277 278 279 279 280 279 278 278 276 275 275 274 274 273 273 272 274 274 275 275 276 277 277 277 276 275 274 274
258 259 259 260 261 264 266 267 270 273 275 277 277 278 277 277 278 279 281 281 281 279 278 278 277 276 275 273 273 274 273 273 273 274 274 275 276 277 275 276 275 274 274
261 261 260 258 260 262 265 267 270 273 276 277 278 278 278 278 279 280 281 282 282 281 279 278 278 277 277 276 274 273 273 274 273 273 274 275 275 275 276 277 276 275 274
262 262 262 261 260 262 264 267 270 272 275 277 278 279 279 280 281 281 281 281 282 282 281 280 279 278 278 277 277 275 274 274 275 274 274 274 275 275 275 276 276 275 275
262 263 263 263 262 263 265 267 269 272 274 276 277 278 279 279 280 281 282 282 282 282 282 281 280 280 279 278 277 277 276 274 274 275 274 275 275 274 275 277 277 275 275
262 263 263 264 265 265 266 267 269 271 273 275 276 277 279 280 280 280 281 282 282 282 281 282 281 281 281 279 279 278 277 276 273 273 275 275 275 274 276 277 276 275 275
262 263 263 264 266 266 267 268 269 270 272 272 274 276 278 280 280 281 281 281 282 282 281 282 283 283 282 280 279 278 276 277 274 274 275 275 274 274 275 277 276 275 274
262 263 264 265 267 268 269 268 268 270 271 272 272 275 277 279 280 281 281 281 282 282 282 283 283 283 282 281 279 277 276 275 275 274 275 275 275 275 274 275 275 274 272
263 262 264 266 268 269 269 269 269 270 271 271 272 274 276 277 279 281 281 281 280 281 284 284 283 282 281 280 280 278 276 276 274 274 275 275 276 275 274 274 274 273 272
265 265 265 268 269 269 269 270 270 270 270 271 272 273 276 277 279 280 281 280 280 280 282 283 283 282 281 280 280 279 277 276 274 274 274 275 275 275 275 275 273 272 271
268 268 268 269 269 269 269 270 270 270 270 270 271 273 276 279 280 280 281 280 281 280 280 282 282 281 282 280 280 279 278 277 274 274 275 276 275 275 275 274 273 271 271
270 270 269 270 269 269 270 270 270 269 270 271 271 272 275 277 280 280 280 280 281 281 281 281 281 280 280 281 280 279 278 277 275 275 276 275 275 275 276 275 273 272 271
270 270 270 270 270 270 271 271 271 271 272 272 271 272 275 276 277 277 278 280 281 281 280 280 280 279 279 280 280 280 278 277 276 276 277 276 276 276 276 275 273 272 271
270 270 270 271 271 271 272 271 271 272 272 273 273 273 274 274 275 276 277 278 280 280 281 281 280 279 279 279 279 279 279 278 277 277 276 277 277 277 276 276 274 273 272
270 271 271 272 272 272 272 272 272 273 273 273 273 273 274 274 275 276 276 277 279 280 280 280 280 280 279 279 278 278 278 277 277 277 277 277 277 276 275 275 274 273 273
270 270 271 272 272 272 272 272 273 273 273 273 273 273 273 274 275 275 275 276 278 279 279 280 280 279 278 278 279 278 278 277 277 277 277 277 276 276 275 275 274 273 272
270 271 271 272 272 272 272 272 273 274 274 274 274 274 274 274 275 275 275 276 277 278 278 279 279 279 278 277 278 278 277 278 277 277 276 275 275 275 274 274 274 273 272
270 271 271 271 271 271 271 272 273 273 273 274 275 275 275 276 276 276 276 276 276 277 278 279 279 278 278 277 277 277 277 277 277 276 275 275 275 274 274 274 273 273 272
271 271 271 271 271 272 271 271 272 272 273 274 275 276 276 276 277 276 276 276 277 277 278 279 279 278 277 276 277 277 277 276 276 276 275 275 275 275 275 274 274 274 273
271 271 271 271 271 271 271 271 271 272 273 274 274 275 276 277 277 276 276 276 277 277 278 279 278 278 277 276 276 277 277 276 276 276 275 276 276 276 276 275 275 275 275
273 272 272 272 272 272 272 272 273 274 274 274 275 275 276 276 277 276 276 276 276 276 278 278 277 276 276 276 276 276 275 275 275 275 275 275 276 276 277 276 276 275 275
273 273 273 273 272 272 272 272 273 273 274 274 275 276 276 277 277 276 276 276 276 276 276 276 275 275 275 275 275 274 274 274 274 275 275 275 276 276 276 277 277 277 277
Height
5814 5815 5815 5816 5816 5816 5815 5815 5815 5814 5814 5814 5813 5812 5812 5811 5810 5809 5809 5808 5807 5806 5805 5805 5804 5804 5804 5803 5802 5801 5801 5800 5799 5799 5798 5798 5797 5797 5796 5795 5795 5794 5794
5809 5809 5809 5810 5810 5810 5810 5809 5809 5808 5808 5807 5807 5806 5805 5804 5803 5802 5801 5800 5799 5798 5797 5797 5796 5796 5795 5795 5794 5793 5793 5792 5791 5791 5790 5790 5789 5788 5788 5787 5787 5786 5785
5802 5803 5803 5804 5804 5804 5803 5803 5803 5802 5802 5801 5800 5799 5798 5797 5796 5795 5794 5793 5791 5790 5789 5788 5788 5787 5786 5786 5785 5785 5784 5783 5783 5782 5781 5781 5780 5780 5779 5778 5778 5777 5777
5796 5797 5797 5797 5797 5797 5797 5797 5796 5795 5795 5794 5793 5792 5791 5790 5789 5787 5786 5785 5783 5782 5781 5780 5779 5778 5777 5777 5776 5776 5775 5775 5774 5773 5772 5771 5771 5770 5770 5769 5768 5768 5768
5789 5790 5790 5790 5790 5790 5790 5789 5789 5788 5787 5787 5786 5785 5784 5782 5781 5780 5778 5776 5775 5773 5772 5771 5770 5769 5768 5768 5767 5766 5766 5766 5765 5764 5763 5762 5762 5761 5760 5759 5759 5758 5758
5782 5783 5783 5783 5783 5783 5783 5782 5782 5781 5780 5779 5778 5777 5776 5774 5773 5771 5770 5768 5766 5764 5763 5761 5760 5760 5759 5758 5758 5757 5757 5756 5756 5754 5753 5752 5752 5751 5750 5749 5749 5748 5748
5775 5775 5775 5775 5776 5776 5775 5775 5774 5774 5773 5772 5771 5770 5768 5766 5764 5763 5761 5759 5757 5756 5754 5753 5751 5750 5750 5749 5748 5748 5748 5747 5746 5745 5744 5743 5741 5740 5740 5739 5739 5738 5738
5767 5768 5768 5768 5768 5768 5768 5767 5767 5766 5765 5764 5763 5761 5760 5759 5757 5755 5753 5751 5749 5747 5746 5744 5743 5742 5741 5740 5739 5739 5738 5737 5736 5735 5734 5732 5731 5731 5730 5730 5729 5729 5728
5759 5760 5760 5760 5760 5760 5760 5759 5759 5758 5757 5756 5754 5753 5752 5751 5749 5748 5745 5743 5741 5740 5738 5736 5735 5733 5732 5731 5730 5729 5728 5727 5726 5725 5724 5723 5722 5721 5720 5720 5720 5719 5719
5751 5752 5752 5752 5752 5752 5752 5751 5750 5749 5748 5748 5746 5745 5744 5742 5741 5740 5738 5736 5733 5732 5730 5728 5727 5725 5723 5722 5721 5720 5718 5717 5717 5716 5715 5714 5713 5712 5711 5711 5710 5710 5710
5743 5743 5743 5743 5743 5743 5743 5742 5741 5741 5740 5739 5738 5736 5735 5734 5732 5731 5730 5728 5726 5724 5722 5720 5718 5716 5714 5713 5712 5710 5709 5708 5707 5706 5706 5705 5704 5703 5702 5701 5700 5700 5700
5735 5735 5735 5735 5734 5734 5733 5733 5732 5732 5731 5730 5729 5727 5726 5725 5724 5722 5721 5720 5718 5716 5714 5712 5710 5708 5706 5704 5702 5701 5700 5699 5698 5697 5696 5695 5694 5693 5692 5691 5691 5690 5690
5726 5726 5726 5725 5725 5724 5724 5723 5722 5722 5721 5720 5719 5718 5717 5716 5715 5713 5712 5711 5709 5708 5706 5703 5701 5699 5697 5695 5693 5692 5691 5689 5688 5687 5686 5685 5684 5683 5682 5681 5681 5680 5680
5716 5716 5716 5715 5715 5714 5714 5713 5713 5712 5711 5711 5710 5709 5708 5707 5705 5704 5703 5701 5700 5699 5697 5695 5692 5689 5688 5686 5684 5682 5681 5679 5678 5677 5676 5675 5674 5673 5672 5671 5670 5670 5670
5706 5706 5706 5706 5705 5705 5704 5703 5703 5702 5701 5701 5700 5699 5698 5697 5696 5694 5693 5691 5690 5689 5688 5685 5682 5680 5678 5676 5674 5672 5671 5669 5668 5667 5666 5665 5664 5663 5662 5660 5660 5659 5659
5696 5696 5695 5695 5695 5694 5694 5693 5692 5692 5691 5691 5690 5689 5688 5687 5685 5684 5682 5681 5679 5678 5677 5675 5672 5670 5668 5666 5664 5662 5660 5659 5658 5657 5655 5654 5653 5652 5651 5650 5649 5649 5648
5685 5685 5684 5684 5684 5683 5683 5682 5682 5681 5680 5680 5679 5678 5677 5676 5675 5673 5672 5670 5668 5666 5665 5664 5661 5659 5657 5655 5654 5651 5650 5648 5647 5646 5644 5643 5642 5641 5639 5639 5638 5637 5637
5675 5674 5673 5673 5673 5672 5671 5671 5670 5670 5669 5668 5668 5667 5666 5665 5664 5662 5660 5658 5657 5654 5653 5652 5650 5648 5646 5644 5642 5640 5638 5637 5635 5634 5633 5631 5630 5629 5628 5627 5626 5625 5625
5663 5663 5662 5661 5661 5660 5659 5659 5658 5658 5657 5656 5656 5655 5654 5653 5652 5650 5648 5646 5645 5643 5641 5640 5638 5636 5634 5632 5630 5629 5627 5625 5624 5622 5621 5619 5618 5617 5616 5615 5614 5613 5613
5651 5651 5650 5649 5648 5648 5647 5646 5646 5645 5645 5644 5643 5642 5641 5640 5639 5637 5635 5634 5632 5630 5629 5627 5626 5624 5622 5620 5619 5617 5615 5613 5612 5610 5608 5607 5606 5605 5604 5603 5602 5601 5601
5638 5638 5637 5636 5636 5635 5634 5634 5633 5632 5632 5631 5630 5629 5628 5627 5626 5624 5623 5621 5620 5618 5616 5615 5613 5612 5610 5608 5607 5605 5603 5601 5599 5598 5596 5595 5594 5593 5591 5590 5590 5589 5588
5625 5624 5624 5623 5622 5622 5621 5620 5619 5619 5618 5618 5617 5615 5614 5613 5612 5611 5609 5608 5607 5605 5603 5602 5600 5599 5597 5595 5593 5592 5590 5588 5587 5586 5584 5582 5581 5580 5579 5578 5577 5577 5576
5611 5611 5610 5609 5608 5608 5607 5606 5605 5605 5605 5604 5603 5602 5601 5599 5598 5597 5596 5594 5593 5591 5590 5588 5587 5585 5584 5582 5580 5579 5577 5575 5574 5573 5571 5570 5568 5567 5566 5565 5565 5564 5563
5597 5596 5596 5595 5594 5593 5592 5592 5591 5590 5590 5590 5589 5588 5587 5585 5584 5582 5581 5580 5579 5578 5576 5574 5573 5571 5570 5568 5566 5565 5564 5562 5561 5560 5559 5558 5556 5555 5554 5552 5552 5551 5550
5583 5582 5581 5581 5580 5579 5578 5577 5576 5576 5575 5575 5574 5573 5572 5571 5570 5568 5567 5566 5565 5563 5561 5559 5558 5557 5556 5554 5552 5551 5550 5549 5549 5548 5546 5545 5544 5542 5541 5539 5538 5537 5536
5568 5567 5567 5566 5565 5564 5563 5562 5561 5561 5561 5560 5559 5558 5557 5556 5554 5552 5551 5550 5550 5548 5546 5545 5544 5543 5542 5540 5539 5538 5537 5536 5535 5535 5534 5532 5531 5530 5529 5527 5525 5523 5522